WV5G-13 Weather Reports


time (UTC)temp
F
wind
direction
speed
knots
gust
knots
rain 1hr
in
rain 24hr
in
rain mn
in
humidity
%
barometer
mb
20260510132641 57 0 13.0 24.3 0.00 0.00 0.00 87 1016.4
20260510132139 57 21 11.3 19.1 0.00 0.00 0.00 88 1015.9
20260510131636 56 8 14.8 26.1 0.00 0.00 0.00 87 1015.9
20260510131133 56 3 15.6 21.7 0.00 0.00 0.00 87 1015.7
20260510130630 57 8 11.3 24.3 0.00 0.00 0.00 87 1015.5
20260510130127 57 10 9.6 16.5 0.00 0.00 0.00 87 1015.5
20260510125623 57 22 15.6 22.6 0.00 0.00 0.00 86 1015.1
20260510125120 57 9 8.7 20.0 0.00 0.00 0.00 86 1014.8
20260510124617 57 11 13.9 21.7 0.00 0.00 0.00 86 1014.9
20260510124114 57 18 16.5 20.0 0.00 0.00 0.00 86 1014.6
20260510123609 58 8 13.0 18.2 0.00 0.00 0.00 86 1014.3
20260510123105 59 16 13.0 16.5 0.00 0.00 0.00 86 1014.1
20260510122601 59 16 8.7 14.8 0.00 0.00 0.00 85 1014.0
20260510122057 59 28 17.4 20.9 0.00 0.00 0.00 85 1013.9
20260510121554 59 15 8.7 16.5 0.00 0.00 0.00 85 1013.8
20260510121051 59 27 11.3 14.8 0.00 0.00 0.00 85 1013.6
20260510120549 59 31 7.0 17.4 0.00 0.00 0.00 85 1013.7
20260510120044 59 35 14.8 19.1 0.00 0.00 0.00 85 1013.6
20260510115541 59 39 14.8 19.1 0.00 0.00 0.00 85 1013.1
20260510115039 59 39 12.2 15.6 0.00 0.00 0.00 85 1013.1
20260510114534 59 45 9.6 17.4 0.00 0.00 0.00 85 1013.1
20260510114031 59 53 11.3 12.2 0.00 0.00 0.00 84 1013.1
20260510113526 59 58 9.6 16.5 0.00 0.00 0.00 84 1013.0
20260510113024 59 58 11.3 18.2 0.00 0.00 0.00 83 1012.8
20260510112520 59 73 13.0 18.2 0.00 0.00 0.00 83 1012.7
20260510112016 59 69 11.3 19.1 0.00 0.00 0.00 82 1012.7
20260510111514 60 74 13.0 20.0 0.00 0.00 0.00 81 1012.2
20260510111009 60 85 14.8 22.6 0.00 0.00 0.00 81 1012.5
20260510110505 60 80 13.0 20.9 0.00 0.00 0.00 80 1012.6
20260510110002 60 72 12.2 20.0 0.00 0.00 0.00 79 1012.2
20260510105457 61 64 13.0 20.9 0.00 0.00 0.00 79 1012.6
20260510104952 61 68 16.5 22.6 0.00 0.00 0.00 80 1012.7
20260510104449 61 44 11.3 21.7 0.00 0.00 0.00 81 1012.2
20260510103945 61 63 20.0 22.6 0.00 0.00 0.00 82 1012.6
20260510103443 61 62 12.2 20.9 0.00 0.00 0.00 82 1012.6
20260510102938 61 58 14.8 20.9 0.00 0.00 0.00 83 1012.5
20260510102434 60 9 10.4 17.4 0.00 0.00 0.00 83 1012.9
20260510101931 60 41 13.0 15.6 0.00 0.00 0.00 83 1012.1
20260510101429 60 70 10.4 21.7 0.00 0.00 0.00 83 1012.0
20260510100927 60 72 12.2 19.1 0.00 0.00 0.00 83 1011.9
20260510100423 60 73 13.0 18.2 0.00 0.00 0.00 83 1011.7
20260510095919 60 70 11.3 14.8 0.00 0.00 0.00 83 1011.8
20260510095415 60 66 8.7 12.2 0.00 0.00 0.00 83 1012.1
20260510094914 60 22 6.1 8.7 0.00 0.00 0.00 83 1012.3
20260510094409 60 65 7.0 10.4 0.00 0.00 0.00 83 1011.9
20260510093905 60 63 7.8 12.2 0.00 0.00 0.00 83 1011.7
20260510093401 60 87 8.7 13.9 0.00 0.00 0.00 82 1011.3
20260510092858 61 92 12.2 17.4 0.00 0.00 0.00 82 1010.9
20260510092354 61 85 7.8 16.5 0.00 0.00 0.00 82 1011.0
20260510091849 61 97 8.7 13.0 0.00 0.00 0.00 82 1010.7
20260510091347 61 85 11.3 17.4 0.00 0.00 0.00 82 1010.7
20260510090843 61 99 7.0 14.8 0.00 0.00 0.00 81 1010.5
20260510090340 61 115 13.0 19.1 0.00 0.00 0.00 81 1010.9
20260510085836 61 101 10.4 15.6 0.00 0.00 0.00 80 1010.5
20260510085330 61 107 12.2 19.1 0.00 0.00 0.00 80 1010.3
20260510084826 61 121 12.2 17.4 0.00 0.00 0.00 80 1010.6
20260510084324 62 114 11.3 17.4 0.00 0.00 0.00 79 1010.5
20260510083820 62 106 7.8 13.9 0.00 0.00 0.00 79 1010.6
20260510083317 62 94 8.7 15.6 0.00 0.00 0.00 78 1010.6
20260510082812 62 101 8.7 18.2 0.00 0.00 0.00 78 1010.3
20260510082310 62 84 13.0 16.5 0.00 0.00 0.00 77 1010.5
20260510081809 62 86 8.7 20.0 0.00 0.00 0.00 77 1010.5
20260510081305 62 103 10.4 20.9 0.00 0.00 0.00 76 1010.2
20260510080801 62 103 14.8 19.1 0.00 0.00 0.00 76 1010.3
20260510080255 62 95 11.3 19.1 0.00 0.00 0.00 76 1010.2
20260510075753 62 94 8.7 21.7 0.00 0.00 0.00 75 1010.0
20260510075250 63 101 20.0 21.7 0.00 0.00 0.00 75 1010.1
20260510074747 63 88 10.4 17.4 0.00 0.00 0.00 75 1010.0
20260510074244 63 83 12.2 22.6 0.00 0.00 0.00 74 1009.8
20260510073740 64 86 9.6 19.1 0.00 0.00 0.00 74 1009.6
20260510073236 64 80 15.6 17.4 0.00 0.00 0.00 74 1009.5
20260510072731 64 76 12.2 18.2 0.00 0.00 0.00 74 1009.2
20260510072229 64 72 11.3 13.0 0.00 0.00 0.00 74 1009.6
20260510071725 65 86 7.0 12.2 0.00 0.00 0.00 74 1009.5
20260510071222 65 58 11.3 15.6 0.00 0.00 0.00 74 1009.7
20260510070720 65 46 5.2 13.0 0.00 0.00 0.00 74 1009.7
20260510070217 65 40 8.7 13.0 0.00 0.00 0.00 73 1009.6
20260510065712 66 78 7.0 13.0 0.00 0.00 0.00 73 1009.7
20260510065208 66 83 12.2 17.4 0.00 0.00 0.00 72 1009.5
20260510064705 67 71 9.6 17.4 0.00 0.00 0.00 72 1009.3
20260510064203 67 67 13.9 22.6 0.00 0.00 0.00 72 1009.2
20260510063659 67 54 21.7 21.7 0.00 0.00 0.00 72 1009.1
20260510063155 66 57 19.1 20.0 0.00 0.00 0.00 72 1009.3
20260510062652 67 46 12.2 19.1 0.00 0.00 0.00 71 1009.5
20260510062148 67 61 9.6 19.1 0.00 0.00 0.00 71 1009.5
20260510061643 68 69 17.4 17.4 0.00 0.00 0.00 70 1009.7
20260510061141 68 88 7.8 14.8 0.00 0.00 0.00 69 1009.9
20260510060637 68 78 7.8 13.0 0.00 0.00 0.00 69 1009.9
20260510060134 68 74 10.4 15.6 0.00 0.00 0.00 69 1009.9
20260510055630 68 70 8.7 14.8 0.00 0.00 0.00 68 1009.8
20260510055128 68 63 9.6 17.4 0.00 0.00 0.00 68 1010.0
20260510054624 69 51 10.4 21.7 0.00 0.00 0.00 68 1009.8
20260510054119 69 58 16.5 22.6 0.00 0.00 0.00 67 1009.6
20260510053618 68 44 13.0 19.1 0.00 0.00 0.00 67 1009.9
20260510053116 69 58 9.6 14.8 0.00 0.00 0.00 66 1009.7
20260510052611 69 63 11.3 14.8 0.00 0.00 0.00 65 1009.7
20260510052108 70 64 6.1 8.7 0.00 0.00 0.00 64 1009.5
20260510051603 70 100 4.3 8.7 0.00 0.00 0.00 64 1009.6
20260510051101 70 106 4.3 13.0 0.00 0.00 0.00 63 1009.2
20260510050558 71 85 6.1 13.0 0.00 0.00 0.00 63 1009.2
20260510050055 71 92 8.7 11.3 0.00 0.00 0.00 62 1008.9
20260510045552 71 85 11.3 13.0 0.00 0.00 0.00 62 1009.0
20260510045048 71 84 9.6 12.2 0.00 0.00 0.00 62 1009.1
20260510044544 71 99 8.7 10.4 0.00 0.00 0.00 62 1008.9
20260510044042 71 94 4.3 12.2 0.00 0.00 0.00 61 1008.8
20260510043537 71 103 8.7 11.3 0.00 0.00 0.00 61 1008.8
20260510043033 71 86 10.4 13.0 0.00 0.00 0.00 60 1008.8
20260510042527 72 88 8.7 13.9 0.00 0.00 0.00 60 1008.8
20260510042022 71 103 7.8 12.2 0.00 0.00 0.00 60 1008.7
20260510041520 70 77 6.1 7.8 0.00 0.00 0.00 58 1008.3
20260510041017 71 73 6.1 9.6 0.00 0.00 0.00 58 1008.5
20260510040514 70 81 6.1 7.8 0.00 0.00 0.00 56 1008.5
20260510040009 70 88 3.5 4.3 0.00 0.00 0.00 54 1008.6
20260510035506 71 20 4.3 5.2 0.00 0.00 0.00 51 1008.6
20260510035005 72 120 4.3 5.2 0.00 0.00 0.00 53 1008.6
20260510034504 72 130 6.1 9.6 0.00 0.00 0.00 53 1008.6
20260510034000 71 143 5.2 7.8 0.00 0.00 0.00 48 1008.3
20260510033456 71 174 5.2 11.3 0.00 0.00 0.00 42 1008.6
20260510032954 70 225 3.5 5.2 0.00 0.00 0.00 37 1008.1
20260510032450 69 254 1.7 2.6 0.00 0.00 0.00 40 1007.7
20260510031945 70 50 4.3 7.0 0.00 0.00 0.00 36 1007.4
20260510031441 71 66 5.2 7.0 0.00 0.00 0.00 30 1007.4
20260510030936 71 50 6.1 7.8 0.00 0.00 0.00 29 1007.7
20260510030432 71 59 8.7 12.2 0.00 0.00 0.00 25 1007.4
20260510025930 72 10 3.5 7.8 0.00 0.00 0.00 22 1007.1
20260510025427 71 19 7.0 7.8 0.00 0.00 0.00 22 1006.6
20260510024925 69 15 4.3 5.2 0.00 0.00 0.00 23 1006.7
20260510024421 70 21 4.3 5.2 0.00 0.00 0.00 22 1006.4
20260510023917 71 96 2.6 3.5 0.00 0.00 0.00 22 1006.6
20260510023413 71 61 3.5 5.2 0.00 0.00 0.00 21 1006.2
20260510022911 72 59 3.5 5.2 0.00 0.00 0.00 21 1006.0
20260510022410 72 33 3.5 4.3 0.00 0.00 0.00 20 1006.1
20260510021909 73 57 4.3 6.1 0.00 0.00 0.00 19 1005.8
20260510021407 73 55 4.3 4.3 0.00 0.00 0.00 18 1005.8
20260510020903 74 36 2.6 3.5 0.00 0.00 0.00 18 1006.0
20260510020358 74 50 2.6 3.5 0.00 0.00 0.00 17 1005.8
20260510015854 75 64 3.5 4.3 0.00 0.00 0.00 17 1005.7
20260510015350 75 36 2.6 2.6 0.00 0.00 0.00 17 1005.6
20260510014845 75 51 1.7 2.6 0.00 0.00 0.00 17 1005.3
20260510014343 76 73 1.7 2.6 0.00 0.00 0.00 17 1005.4
20260510013839 76 59 2.6 3.5 0.00 0.00 0.00 18 1005.2
20260510013335 77 75 2.6 3.5 0.00 0.00 0.00 18 1005.1
20260510012830 79 55 2.6 3.5 0.00 0.00 0.00 17 1005.2
20260510012330 80 45 2.6 4.3 0.00 0.00 0.00 17 1005.1
20260510011825 80 33 2.6 3.5 0.00 0.00 0.00 16 1005.0
20260510011320 82 21 2.6 4.3 0.00 0.00 0.00 15 1004.8
20260510010817 82 25 2.6 2.6 0.00 0.00 0.00 16 1005.0
20260510010315 84 30 2.6 2.6 0.00 0.00 0.00 15 1004.8
20260510005811 85 21 2.6 3.5 0.00 0.00 0.00 14 1004.7
20260510005307 86 24 2.6 4.3 0.00 0.00 0.00 14 1004.9
20260510004805 87 15 2.6 3.5 0.00 0.00 0.00 14 1005.0
20260510004302 87 3 2.6 4.3 0.00 0.00 0.00 13 1004.9
20260510003800 88 4 2.6 3.5 0.00 0.00 0.00 12 1005.0
20260510003257 88 354 4.3 5.2 0.00 0.00 0.00 12 1004.9
20260510002755 89 29 7.0 7.0 0.00 0.00 0.00 12 1005.0
20260510002253 90 358 6.1 6.1 0.00 0.00 0.00 11 1005.0
20260510001749 90 269 0.0 3.5 0.00 0.00 0.00 11 1004.8
20260510001248 89 325 3.5 6.1 0.00 0.00 0.00 13 1005.3
20260510000743 89 309 3.5 8.7 0.00 0.00 0.00 13 1005.0
20260510000241 89 336 4.3 7.8 0.00 0.00 0.00 12 1005.0
20260509235737 89 341 4.3 8.7 0.00 0.00 0.00 13 1005.1
20260509235234 90 308 6.1 11.3 0.00 0.00 0.00 12 1005.2
20260509234730 90 281 3.5 7.8 0.00 0.00 0.00 11 1005.1
20260509234227 89 281 3.5 11.3 0.00 0.00 0.00 13 1005.6
20260509233725 90 306 9.6 9.6 0.00 0.00 0.00 11 1005.4
20260509233223 90 281 9.6 13.0 0.00 0.00 0.00 12 1005.3
20260509232718 90 306 10.4 15.6 0.00 0.00 0.00 11 1005.3
20260509232216 89 310 7.0 14.8 0.00 0.00 0.00 12 1005.7
20260509231712 89 312 8.7 16.5 0.00 0.00 0.00 12 1005.2
20260509231209 89 312 7.8 13.9 0.00 0.00 0.00 13 1005.1
20260509230707 89 252 7.8 16.5 0.00 0.00 0.00 13 1005.4
20260509230203 89 248 4.3 13.0 0.00 0.00 0.00 13 1005.1
20260509225659 90 290 11.3 14.8 0.00 0.00 0.00 12 1005.2
20260509225155 89 275 7.0 15.6 0.00 0.00 0.00 13 1005.6
20260509224651 90 249 11.3 22.6 0.00 0.00 0.00 13 1005.3
20260509224148 89 314 9.6 14.8 0.00 0.00 0.00 12 1005.3
20260509223645 90 287 4.3 9.6 0.00 0.00 0.00 13 1005.3
20260509223142 90 265 8.7 13.9 0.00 0.00 0.00 13 1005.6
20260509222639 89 299 7.8 13.9 0.00 0.00 0.00 12 1005.4
20260509222134 90 265 2.6 7.0 0.00 0.00 0.00 14 1005.2
20260509221630 90 309 5.2 7.8 0.00 0.00 0.00 14 1005.4
20260509221126 90 271 8.7 17.4 0.00 0.00 0.00 14 1005.7
20260509220622 90 294 11.3 19.1 0.00 0.00 0.00 14 1005.1
20260509220113 90 266 5.2 10.4 0.00 0.00 0.00 15 1005.3
20260509215609 90 312 6.1 11.3 0.00 0.00 0.00 16 1005.6
20260509215106 90 283 6.1 16.5 0.00 0.00 0.00 15 1005.7
20260509214602 89 254 4.3 21.7 0.00 0.00 0.00 15 1005.7
20260509214059 89 268 2.6 14.8 0.00 0.00 0.00 14 1005.7
20260509213555 89 304 11.3 17.4 0.00 0.00 0.00 14 1005.7
20260509213052 89 289 5.2 11.3 0.00 0.00 0.00 16 1005.6
20260509212549 89 325 11.3 14.8 0.00 0.00 0.00 17 1005.8
20260509212046 90 292 3.5 20.0 0.00 0.00 0.00 16 1005.9
20260509211541 89 313 12.2 20.0 0.00 0.00 0.00 15 1006.0
20260509211039 89 320 5.2 8.7 0.00 0.00 0.00 18 1006.0
20260509210536 89 284 6.1 13.9 0.00 0.00 0.00 19 1006.2
20260509210032 89 305 9.6 15.6 0.00 0.00 0.00 18 1006.3
20260509205526 90 292 14.8 14.8 0.00 0.00 0.00 18 1006.3
20260509205022 89 294 6.1 10.4 0.00 0.00 0.00 20 1006.3
20260509204518 89 298 7.8 10.4 0.00 0.00 0.00 22 1006.3
20260509204015 88 300 5.2 11.3 0.00 0.00 0.00 20 1006.6
20260509203511 88 306 4.3 13.0 0.00 0.00 0.00 21 1006.7
20260509203009 88 297 9.6 16.5 0.00 0.00 0.00 19 1006.6
20260509202503 88 278 1.7 7.8 0.00 0.00 0.00 20 1006.3
20260509201959 87 234 13.0 17.4 0.00 0.00 0.00 21 1006.9
20260509201454 88 239 11.3 11.3 0.00 0.00 0.00 21 1006.8
20260509200951 88 246 17.4 21.7 0.00 0.00 0.00 21 1006.8
20260509200446 88 277 5.2 19.1 0.00 0.00 0.00 20 1006.9
20260509195943 87 242 6.1 10.4 0.00 0.00 0.00 20 1007.1
20260509195439 88 242 8.7 14.8 0.00 0.00 0.00 21 1007.0
20260509194938 87 315 7.8 18.2 0.00 0.00 0.00 21 1007.2
20260509194434 88 292 8.7 13.9 0.00 0.00 0.00 22 1007.2
20260509193931 87 247 4.3 7.0 0.00 0.00 0.00 23 1007.6
20260509193431 86 230 7.8 8.7 0.00 0.00 0.00 21 1007.2
20260509192927 86 290 5.2 13.0 0.00 0.00 0.00 23 1007.6
20260509192424 86 219 9.6 15.6 0.00 0.00 0.00 21 1007.7
20260509191919 87 229 12.2 24.3 0.00 0.00 0.00 20 1007.8
20260509191414 87 224 9.6 17.4 0.00 0.00 0.00 21 1007.8
20260509190911 86 289 3.5 11.3 0.00 0.00 0.00 25 1007.8
20260509190408 87 233 12.2 20.9 0.00 0.00 0.00 21 1008.1
20260509185906 86 212 6.1 12.2 0.00 0.00 0.00 22 1007.9
20260509185403 86 246 9.6 14.8 0.00 0.00 0.00 23 1008.2
20260509184859 86 228 11.3 22.6 0.00 0.00 0.00 21 1008.1
20260509184356 86 244 12.2 22.6 0.00 0.00 0.00 22 1008.1
20260509183854 87 229 12.2 19.1 0.00 0.00 0.00 21 1008.3
20260509183348 85 222 12.2 17.4 0.00 0.00 0.00 22 1008.2
20260509182844 86 229 13.9 19.1 0.00 0.00 0.00 24 1008.2
20260509182341 85 234 12.2 24.3 0.00 0.00 0.00 23 1008.3
20260509181838 85 234 8.7 14.8 0.00 0.00 0.00 26 1008.6
20260509181336 85 235 11.3 22.6 0.00 0.00 0.00 24 1008.7
20260509180833 84 221 13.9 25.2 0.00 0.00 0.00 24 1008.9
20260509180329 84 208 11.3 18.2 0.00 0.00 0.00 26 1008.7
20260509175826 84 205 10.4 12.2 0.00 0.00 0.00 26 1009.2
20260509175322 84 214 13.9 32.2 0.00 0.00 0.00 25 1009.2
20260509174818 84 218 11.3 17.4 0.00 0.00 0.00 27 1009.2
20260509174314 83 223 7.8 13.0 0.00 0.00 0.00 29 1009.1
20260509173810 83 197 5.2 18.2 0.00 0.00 0.00 29 1009.3
20260509173306 82 208 7.8 13.0 0.00 0.00 0.00 30 1009.6
20260509172801 82 207 13.0 25.2 0.00 0.00 0.00 30 1009.8
20260509172253 83 184 10.4 21.7 0.00 0.00 0.00 29 1009.7
20260509171748 82 158 12.2 15.6 0.00 0.00 0.00 30 1009.6
20260509171245 81 196 4.3 15.6 0.00 0.00 0.00 31 1009.7
20260509170742 82 180 12.2 17.4 0.00 0.00 0.00 30 1009.6
20260509170238 82 194 17.4 17.4 0.00 0.00 0.00 29 1009.9
20260509165736 81 162 7.0 13.9 0.00 0.00 0.00 33 1009.7
20260509165232 80 202 8.7 17.4 0.00 0.00 0.00 33 1009.9
20260509164728 80 187 6.1 15.6 0.00 0.00 0.00 33 1009.9
20260509164224 80 202 20.0 20.0 0.00 0.00 0.00 33 1010.1
20260509163721 79 191 4.3 13.9 0.00 0.00 0.00 35 1010.2
20260509163217 80 200 4.3 15.6 0.00 0.00 0.00 33 1010.2
20260509162715 79 191 12.2 20.0 0.00 0.00 0.00 35 1010.6
20260509162210 79 209 13.0 14.8 0.00 0.00 0.00 35 1010.3
20260509161706 79 177 8.7 17.4 0.00 0.00 0.00 35 1010.5
20260509161203 78 184 6.1 21.7 0.00 0.00 0.00 36 1010.3
20260509160658 78 185 4.3 15.6 0.00 0.00 0.00 36 1010.3
20260509160154 78 200 13.0 13.0 0.00 0.00 0.00 36 1010.6
20260509155650 77 176 4.3 11.3 0.00 0.00 0.00 39 1010.3
20260509155146 77 157 8.7 12.2 0.00 0.00 0.00 40 1010.7
20260509154642 77 166 7.8 12.2 0.00 0.00 0.00 39 1010.7
20260509154139 77 171 6.1 11.3 0.00 0.00 0.00 38 1010.6
20260509153636 75 184 11.3 11.3 0.00 0.00 0.00 41 1010.5
20260509153133 75 190 4.3 11.3 0.00 0.00 0.00 40 1010.8
20260509152628 75 177 5.2 11.3 0.00 0.00 0.00 40 1010.7
20260509152126 74 195 4.3 10.4 0.00 0.00 0.00 43 1011.0
20260509151622 74 174 6.1 9.6 0.00 0.00 0.00 43 1011.0
20260509151120 73 196 3.5 12.2 0.00 0.00 0.00 43 1010.9
20260509150618 73 162 2.6 11.3 0.00 0.00 0.00 44 1011.1
20260509150116 71 131 11.3 11.3 0.00 0.00 0.00 49 1011.0
20260509145611 72 137 9.6 14.8 0.00 0.00 0.00 48 1011.0
20260509145107 72 183 3.5 13.0 0.00 0.00 0.00 49 1011.0
20260509144604 72 177 4.3 12.2 0.00 0.00 0.00 48 1011.1
20260509144101 71 144 7.0 12.2 0.00 0.00 0.00 51 1011.0
20260509143558 70 138 7.8 12.2 0.00 0.00 0.00 56 1011.1
20260509143056 70 145 7.8 13.0 0.00 0.00 0.00 56 1010.9
20260509142551 71 167 3.5 8.7 0.00 0.00 0.00 55 1011.0
20260509142047 71 177 4.3 7.8 0.00 0.00 0.00 53 1011.5
20260509141543 69 182 5.2 7.8 0.00 0.00 0.00 55 1011.2
20260509141040 69 138 4.3 7.8 0.00 0.00 0.00 56 1011.1
20260509140537 68 132 5.2 7.0 0.00 0.00 0.00 56 1011.1
20260509140035 68 118 4.3 7.0 0.00 0.00 0.00 54 1011.2
20260509135532 68 95 1.7 4.3 0.00 0.00 0.00 50 1011.2
20260509135030 67 353 0.0 2.6 0.00 0.00 0.00 50 1011.3
20260509134526 67 22 0.9 3.5 0.00 0.00 0.00 46 1011.3
20260509134024 66 88 1.7 4.3 0.00 0.00 0.00 47 1011.3
20260509133520 65 44 1.7 4.3 0.00 0.00 0.00 45 1011.1
20260509133019 66 36 1.7 3.5 0.00 0.00 0.00 44 1011.1